Flag for Germany Weather past 2 weeks in Landau in der Pfalz, Rhineland-Palatinate, Germany

Now
52 °F

Clear.


Feels Like: 51 °F
Forecast: 39 / 47 °F
Wind: 3 mph from North

Location: Baden Wurttemberg - Neuostheim

Current Time: Oct 21, 2014 at 8:04:00 AM

Latest Report: Oct 21, 2014 at 7:20 AM


Visibility: 10 mi

Pressure: 29.95 "Hg

Humidity: 94%

Dew point: 50 °F

Location of Landau in der PfalzLocation

Historic Weather in Landau in der Pfalz — Graph

°F

Landau in der Pfalz temperature yesterday

Maximum temperature yesterday: 66 °F (at 6:50 AM)
Minimum temperature yesterday: 63 °F (at 10:50 AM)
Average temperature yesterday: 65 °F

Past Weeks' High & Low Weather Summary

 TemperatureHumidityPressure
High75 °F (Oct 19, 4:20 PM)100% (Oct 9, 10:20 PM)30.18 "Hg (Oct 9, 10:20 PM)
Low46 °F (Oct 18, 7:20 AM)57% (Oct 14, 3:20 PM)29.68 "Hg (Oct 7, 8:50 AM)
Average62 °F82%29.89 "Hg
* Reported Oct 6 6:50 AM — Oct 21 6:50 AM, Landau in der Pfalz, Weather by CustomWeather, © 2014

Note: Actual official high and low records may vary slightly from our data, if they occured in-between our weather recording intervals... More about our weather records

Advertising

Landau in der Pfalz weather history for previous 24 hours

 ConditionsComfort  
Time TempWeatherWind HumidityBarometerVisibility
6:50 AM
Oct 21
48 °FClear.2 mph100%29.95 "Hg10 mi
6:20 AM50 °FClear.3 mph94%29.95 "Hg10 mi
5:50 AM46 °FClear.1 mph100%29.95 "Hg10 mi
9:20 PM
Oct 20
63 °FPartly cloudy.5 mph73%30.01 "HgN/A
8:50 PM63 °FPassing clouds.6 mph73%30.01 "HgN/A
8:20 PM63 °FClear.5 mph73%30.01 "Hg10 mi
7:50 PM63 °FOvercast.6 mph73%30.04 "HgN/A
7:20 PM64 °FBroken clouds.7 mph68%30.01 "HgN/A
6:50 PM64 °FPartly sunny.7 mph68%30.04 "HgN/A
6:20 PM64 °FPartly sunny.5 mph68%30.01 "HgN/A
5:50 PM64 °FPartly sunny.6 mph68%30.04 "HgN/A
5:20 PM66 °FSunny.6 mph64%30.04 "Hg10 mi
4:50 PM66 °FBroken clouds.2 mph73%30.04 "HgN/A
4:20 PM66 °FBroken clouds.6 mph68%30.04 "HgN/A
3:50 PM66 °FPartly sunny.7 mph68%30.07 "HgN/A
3:20 PM66 °FScattered clouds.5 mph73%30.04 "HgN/A
2:50 PM66 °FPartly sunny.7 mph68%30.07 "HgN/A
2:20 PM66 °FBroken clouds.7 mph68%30.07 "HgN/A
1:50 PM66 °FBroken clouds.6 mph73%30.07 "HgN/A
1:20 PM66 °FPartly sunny.7 mph68%30.07 "HgN/A
12:50 PM66 °FOvercast.9 mph73%30.09 "HgN/A
12:20 PM66 °FOvercast.7 mph73%30.09 "HgN/A
11:50 AM64 °FBroken clouds.7 mph83%30.09 "HgN/A
11:20 AM64 °FScattered showers. Partly sunny.6 mph83%30.09 "HgN/A
10:50 AM63 °FScattered showers. Partly sunny.5 mph88%30.09 "HgN/A
10:20 AM64 °FOvercast.3 mph83%30.09 "HgN/A
9:50 AM64 °FMore clouds than sun.3 mph83%30.09 "HgN/A
9:20 AM64 °FMore clouds than sun.3 mph83%30.09 "HgN/A
8:50 AM64 °FMostly cloudy.6 mph83%30.09 "HgN/A
8:20 AM64 °FOvercast.3 mph83%30.09 "HgN/A
Weather by CustomWeather, © 2014

See weather overviewHow to use our weather pages